Regional Weather Roundup
Issued by NWS

Home | Current Version | Previous Version | Graphics & Text | Print | Product List | Glossary On
Versions: 1 2 3 4 5 6 7 8 9 10 11 12 13 14 15 16 17 18 19 20 21 22 23 24 25 26 27 28 29 30 31 32 33 34 35 36 37 38 39 40 41 42 43 44 45 46 47 48 49 50
000
ASUS43 KLMK 082202
RWRKY
KENTUCKY REGIONAL WEATHER ROUNDUP
NATIONAL WEATHER SERVICE LOUISVILLE KY
500 PM EST THU DEC 08 2016

NOTE "FAIR" INDICATES FEW OR NO CLOUDS BELOW 12,000 FEET
WITH NO SIGNIFICANT WEATHER AND/OR OBSTRUCTIONS TO VISIBILITY.

KYZ001>023-026-027-061>063-070>075-082300-
WESTERN AND SOUTH CENTRAL KENTUCKY

CITY           SKY/WX    TMP DP  RH WIND       PRES   REMARKS
PADUCAH        CLEAR     34  12  40 NW8       30.48R WCI  27
HENDERSON      CLEAR     30  16  55 NW13      30.46R WCI  20
OWENSBORO      CLEAR     32  18  56 NW14      30.45R WCI  22
HOPKINSVILLE   PTCLDY    33  13  44 W8        30.44R WCI  26
BOWLING GREEN  CLEAR     33  14  45 NW6       30.44R WCI  28
GLASGOW        NOT AVBL
$$

KYZ024-025-028>034-038-045-046-053-082300-
NORTH CENTRAL KENTUCKY

CITY           SKY/WX    TMP DP  RH WIND       PRES   REMARKS
LOUISVILLE/SDF PTCLDY    32  13  45 W15       30.39R WCI  22
LOUISVILLE/LOU CLEAR     33  14  45 W14       30.39R WCI  23
FORT KNOX      CLEAR     31  15  51 W10       30.37R WCI  22
$$

KYZ035>037-039>044-047>052-055>060-089>105-082300-
NORTHEAST KENTUCKY

CITY           SKY/WX    TMP DP  RH WIND       PRES   REMARKS
LEXINGTON      CLEAR     32  13  45 W10       30.33R WCI  24
COVINGTON      PTCLDY    26  15  63 NW15      30.34R WCI  14
FRANKFORT      CLEAR     33  12  41 W8        30.34R WCI  26
$$

KYZ054-064>069-076>088-106>120-082300-
SOUTHEAST KENTUCKY

CITY           SKY/WX    TMP DP  RH WIND       PRES   REMARKS
JACKSON        CLEAR     32  16  51 VRB7G17   30.29R WCI  26
LONDON         CLEAR     33  15  47 W13       30.32R WCI  24
SOMERSET       NOT AVBL
MIDDLESBORO    CLEAR     36  15  42 NW13      30.32R WCI  28
MONTICELLO     CLEAR     33  16  49 W10       30.38R WCI  25
$$





USA.gov is the U.S. government's official web portal to all federal, state and local government web resources and services.